owner,sensor,date,latitude,longitude,vertical_datum,mass_concentration_of_oxygen_in_sea_water,qcFlag 
DISL,ioos:station:DISL:MHPA:1,2011-01-01T06:30:00Z,30.6671,-87.9365,4.808,9.22,1111122 
DISL,ioos:station:DISL:MHPA:1,2011-01-01T07:00:00Z,30.6671,-87.9365,4.751,9.12,1111122 
DISL,ioos:station:DISL:MHPA:1,2011-01-01T07:30:00Z,30.6671,-87.9365,4.641,9.12,1111122 
DISL,ioos:station:DISL:MHPA:1,2011-01-01T08:00:00Z,30.6671,-87.9365,4.514,8.98,1111122 
DISL,ioos:station:DISL:MHPA:1,2011-01-01T08:30:00Z,30.6671,-87.9365,4.353,8.94,1111122 
DISL,ioos:station:DISL:MHPA:1,2011-01-01T09:00:00Z,30.6671,-87.9365,4.173,8.68,1111122 
DISL,ioos:station:DISL:MHPA:1,2011-01-01T09:30:00Z,30.6671,-87.9365,4.047,8.7,1111122 
DISL,ioos:station:DISL:MHPA:1,2011-01-01T10:00:00Z,30.6671,-87.9365,3.909,8.64,1111122 
DISL,ioos:station:DISL:MHPA:1,2011-01-01T10:30:00Z,30.6671,-87.9365,3.807,8.62,1111122 
DISL,ioos:station:DISL:MHPA:1,2011-01-01T11:00:00Z,30.6671,-87.9365,3.698,8.6,1111122 
DISL,ioos:station:DISL:MHPA:1,2011-01-01T11:30:00Z,30.6671,-87.9365,3.556,8.5,1111122 
DISL,ioos:station:DISL:MHPA:1,2011-01-01T12:00:00Z,30.6671,-87.9365,3.489,8.51,1111122 
DISL,ioos:station:DISL:MHPA:1,2011-01-01T12:30:00Z,30.6671,-87.9365,3.387,8.28,1111122 
DISL,ioos:station:DISL:MHPA:1,2011-01-01T13:00:00Z,30.6671,-87.9365,3.297,8.44,1111122 
DISL,ioos:station:DISL:MHPA:1,2011-01-01T13:30:00Z,30.6671,-87.9365,3.255,8.27,1111122 
DISL,ioos:station:DISL:MHPA:1,2011-01-01T14:00:00Z,30.6671,-87.9365,3.2,8.26,1111122 
DISL,ioos:station:DISL:MHPA:1,2011-01-01T14:30:00Z,30.6671,-87.9365,3.173,8.39,1111122 
DISL,ioos:station:DISL:MHPA:1,2011-01-01T15:00:00Z,30.6671,-87.9365,3.113,8.41,1111122 
DISL,ioos:station:DISL:MHPA:1,2011-01-01T15:30:00Z,30.6671,-87.9365,3.021,8.18,1111122 
DISL,ioos:station:DISL:MHPA:1,2011-01-01T16:00:00Z,30.6671,-87.9365,3.016,8.21,1111122 
DISL,ioos:station:DISL:MHPA:1,2011-01-01T16:30:00Z,30.6671,-87.9365,3.157,8.39,1111122 
DISL,ioos:station:DISL:MHPA:1,2011-01-01T17:00:00Z,30.6671,-87.9365,3.252,8.21,1111122 
DISL,ioos:station:DISL:MHPA:1,2011-01-01T17:30:00Z,30.6671,-87.9365,3.225,8.07,1111122 
DISL,ioos:station:DISL:MHPA:1,2011-01-01T18:00:00Z,30.6671,-87.9365,3.236,8.25,1111122 
DISL,ioos:station:DISL:MHPA:1,2011-01-01T18:30:00Z,30.6671,-87.9365,3.464,8.38,1111122 
DISL,ioos:station:DISL:MHPA:1,2011-01-01T19:00:00Z,30.6671,-87.9365,3.539,8.46,1111122 
DISL,ioos:station:DISL:MHPA:1,2011-01-01T19:30:00Z,30.6671,-87.9365,3.596,8.64,1111122 
DISL,ioos:station:DISL:MHPA:1,2011-01-01T20:00:00Z,30.6671,-87.9365,3.616,8.77,1111122 
DISL,ioos:station:DISL:MHPA:1,2011-01-01T20:30:00Z,30.6671,-87.9365,3.761,9.02,1111122 
DISL,ioos:station:DISL:MHPA:1,2011-01-01T21:00:00Z,30.6671,-87.9365,3.76,9.02,1111122 
DISL,ioos:station:DISL:MHPA:1,2011-01-01T21:30:00Z,30.6671,-87.9365,3.646,8.82,1111122 
DISL,ioos:station:DISL:MHPA:1,2011-01-01T22:00:00Z,30.6671,-87.9365,3.678,9.54,1111122 
DISL,ioos:station:DISL:MHPA:1,2011-01-01T22:30:00Z,30.6671,-87.9365,3.764,9.29,1111122 
DISL,ioos:station:DISL:MHPA:1,2011-01-01T23:00:00Z,30.6671,-87.9365,3.867,9.29,1111122 
DISL,ioos:station:DISL:MHPA:1,2011-01-01T23:30:00Z,30.6671,-87.9365,3.814,9.31,1111122 
DISL,ioos:station:DISL:MHPA:1,2011-01-02T00:00:00Z,30.6671,-87.9365,3.859,9.15,1111122 
DISL,ioos:station:DISL:MHPA:1,2011-01-02T00:30:00Z,30.6671,-87.9365,3.904,9.07,1111122 
DISL,ioos:station:DISL:MHPA:1,2011-01-02T01:00:00Z,30.6671,-87.9365,3.864,8.92,1111122 
DISL,ioos:station:DISL:MHPA:1,2011-01-02T01:30:00Z,30.6671,-87.9365,3.865,8.87,1111122 
DISL,ioos:station:DISL:MHPA:1,2011-01-02T02:00:00Z,30.6671,-87.9365,3.866,8.83,1111122 
DISL,ioos:station:DISL:MHPA:1,2011-01-02T02:30:00Z,30.6671,-87.9365,3.77,8.82,1111122 
DISL,ioos:station:DISL:MHPA:1,2011-01-02T03:00:00Z,30.6671,-87.9365,3.661,8.83,1111122 
DISL,ioos:station:DISL:MHPA:1,2011-01-02T03:30:00Z,30.6671,-87.9365,3.772,8.57,1111122 
DISL,ioos:station:DISL:MHPA:1,2011-01-02T04:00:00Z,30.6671,-87.9365,3.592,8.18,1111122 
DISL,ioos:station:DISL:MHPA:1,2011-01-02T04:30:00Z,30.6671,-87.9365,3.575,8.61,1111122 
DISL,ioos:station:DISL:MHPA:1,2011-01-02T05:00:00Z,30.6671,-87.9365,3.55,8.48,1111122 
DISL,ioos:station:DISL:MHPA:1,2011-01-02T05:30:00Z,30.6671,-87.9365,3.494,8.48,1111122 
DISL,ioos:station:DISL:MHPA:1,2011-01-02T06:00:00Z,30.6671,-87.9365,3.396,8.13,1111122 
DISL,ioos:station:DISL:MHPA:1,2011-01-02T06:30:00Z,30.6671,-87.9365,3.364,8.32,1111122 
DISL,ioos:station:DISL:MHPA:1,2011-01-02T07:00:00Z,30.6671,-87.9365,3.2,8.35,1111122 
DISL,ioos:station:DISL:MHPA:1,2011-01-02T07:30:00Z,30.6671,-87.9365,2.995,7.96,1111122 
DISL,ioos:station:DISL:MHPA:1,2011-01-02T08:00:00Z,30.6671,-87.9365,2.832,7.9,1111122 
DISL,ioos:station:DISL:MHPA:1,2011-01-02T08:30:00Z,30.6671,-87.9365,2.705,8.26,1111122 
DISL,ioos:station:DISL:MHPA:1,2011-01-02T09:00:00Z,30.6671,-87.9365,2.586,8.47,1111122 
DISL,ioos:station:DISL:MHPA:1,2011-01-02T09:30:00Z,30.6671,-87.9365,2.457,8.54,1111122 
DISL,ioos:station:DISL:MHPA:1,2011-01-02T10:00:00Z,30.6671,-87.9365,2.328,8.55,1111122 
DISL,ioos:station:DISL:MHPA:1,2011-01-02T10:30:00Z,30.6671,-87.9365,2.229,8.47,1111122 
DISL,ioos:station:DISL:MHPA:1,2011-01-02T11:00:00Z,30.6671,-87.9365,2.15,8.57,1111122 
DISL,ioos:station:DISL:MHPA:1,2011-01-02T11:30:00Z,30.6671,-87.9365,2.051,8.54,1111122 
DISL,ioos:station:DISL:MHPA:1,2011-01-02T12:00:00Z,30.6671,-87.9365,1.935,8.35,1111122 
DISL,ioos:station:DISL:MHPA:1,2011-01-02T12:30:00Z,30.6671,-87.9365,1.836,6.24,1111122 
DISL,ioos:station:DISL:MHPA:1,2011-01-02T13:00:00Z,30.6671,-87.9365,1.742,8.58,1111122 
DISL,ioos:station:DISL:MHPA:1,2011-01-02T13:30:00Z,30.6671,-87.9365,1.651,8.54,1111122 
DISL,ioos:station:DISL:MHPA:1,2011-01-02T14:00:00Z,30.6671,-87.9365,1.57,8.51,1111122 
DISL,ioos:station:DISL:MHPA:1,2011-01-02T14:30:00Z,30.6671,-87.9365,1.503,8.79,1111122 
DISL,ioos:station:DISL:MHPA:1,2011-01-02T15:00:00Z,30.6671,-87.9365,1.449,9.14,1111122 
DISL,ioos:station:DISL:MHPA:1,2011-01-02T15:30:00Z,30.6671,-87.9365,1.408,8.92,1111122 
DISL,ioos:station:DISL:MHPA:1,2011-01-02T16:00:00Z,30.6671,-87.9365,1.375,9.21,1111122 
DISL,ioos:station:DISL:MHPA:1,2011-01-02T16:30:00Z,30.6671,-87.9365,1.348,9.14,1111122 
DISL,ioos:station:DISL:MHPA:1,2011-01-02T17:00:00Z,30.6671,-87.9365,1.322,9.26,1111122 
DISL,ioos:station:DISL:MHPA:1,2011-01-02T17:30:00Z,30.6671,-87.9365,1.307,9.45,1111122 
DISL,ioos:station:DISL:MHPA:1,2011-01-02T18:00:00Z,30.6671,-87.9365,1.289,9.54,1111122 
DISL,ioos:station:DISL:MHPA:1,2011-01-02T18:30:00Z,30.6671,-87.9365,1.274,9.1,1111122 
DISL,ioos:station:DISL:MHPA:1,2011-01-02T19:00:00Z,30.6671,-87.9365,1.265,9.73,1111122 
DISL,ioos:station:DISL:MHPA:1,2011-01-02T19:30:00Z,30.6671,-87.9365,1.265,10.19,1111122 
DISL,ioos:station:DISL:MHPA:1,2011-01-02T20:00:00Z,30.6671,-87.9365,1.289,10.29,1111122 
DISL,ioos:station:DISL:MHPA:1,2011-01-02T20:30:00Z,30.6671,-87.9365,1.397,10.48,1111122 
DISL,ioos:station:DISL:MHPA:1,2011-01-02T21:00:00Z,30.6671,-87.9365,1.621,10.49,1111122 
DISL,ioos:station:DISL:MHPA:1,2011-01-02T21:30:00Z,30.6671,-87.9365,1.862,10.93,1111122 
DISL,ioos:station:DISL:MHPA:1,2011-01-02T22:00:00Z,30.6671,-87.9365,2.053,11.06,1111122 
DISL,ioos:station:DISL:MHPA:1,2011-01-02T22:30:00Z,30.6671,-87.9365,2.263,11.14,1111122 
DISL,ioos:station:DISL:MHPA:1,2011-01-02T23:00:00Z,30.6671,-87.9365,2.375,10.89,1111122 
DISL,ioos:station:DISL:MHPA:1,2011-01-02T23:30:00Z,30.6671,-87.9365,2.432,10.6,1111122 
DISL,ioos:station:DISL:MHPA:1,2011-01-03T00:00:00Z,30.6671,-87.9365,2.597,10.94,1111122 
DISL,ioos:station:DISL:MHPA:1,2011-01-03T00:30:00Z,30.6671,-87.9365,2.789,11.11,1111122 
DISL,ioos:station:DISL:MHPA:1,2011-01-03T01:00:00Z,30.6671,-87.9365,2.909,11.08,1111122 
DISL,ioos:station:DISL:MHPA:1,2011-01-03T01:30:00Z,30.6671,-87.9365,3.029,11.14,1111122 
DISL,ioos:station:DISL:MHPA:1,2011-01-03T02:00:00Z,30.6671,-87.9365,3.138,11.1,1111122 
DISL,ioos:station:DISL:MHPA:1,2011-01-03T02:30:00Z,30.6671,-87.9365,3.202,11.06,1111122 
DISL,ioos:station:DISL:MHPA:1,2011-01-03T03:00:00Z,30.6671,-87.9365,3.326,10.58,1111122 
DISL,ioos:station:DISL:MHPA:1,2011-01-03T03:30:00Z,30.6671,-87.9365,3.338,10.43,1111122 
DISL,ioos:station:DISL:MHPA:1,2011-01-03T04:00:00Z,30.6671,-87.9365,3.3,10.38,1111122 
DISL,ioos:station:DISL:MHPA:1,2011-01-03T04:30:00Z,30.6671,-87.9365,3.347,10.48,1111122 
DISL,ioos:station:DISL:MHPA:1,2011-01-03T05:00:00Z,30.6671,-87.9365,3.345,10.19,1111122 
DISL,ioos:station:DISL:MHPA:1,2011-01-03T05:30:00Z,30.6671,-87.9365,3.341,10.16,1111122 
DISL,ioos:station:DISL:MHPA:1,2011-01-03T06:00:00Z,30.6671,-87.9365,3.318,10.01,1111122 
DISL,ioos:station:DISL:MHPA:1,2011-01-03T06:30:00Z,30.6671,-87.9365,3.243,10.12,1111122 
DISL,ioos:station:DISL:MHPA:1,2011-01-03T07:00:00Z,30.6671,-87.9365,3.13,10.09,1111122 
DISL,ioos:station:DISL:MHPA:1,2011-01-03T07:30:00Z,30.6671,-87.9365,3.006,10.13,1111122 
DISL,ioos:station:DISL:MHPA:1,2011-01-03T08:00:00Z,30.6671,-87.9365,2.888,9.91,1111122 
DISL,ioos:station:DISL:MHPA:1,2011-01-03T08:30:00Z,30.6671,-87.9365,2.754,10.21,1111122 
DISL,ioos:station:DISL:MHPA:1,2011-01-03T09:00:00Z,30.6671,-87.9365,2.603,9.78,1111122 
DISL,ioos:station:DISL:MHPA:1,2011-01-03T09:30:00Z,30.6671,-87.9365,2.451,9.48,1111122 
DISL,ioos:station:DISL:MHPA:1,2011-01-03T10:00:00Z,30.6671,-87.9365,2.31,9.96,1111122 
DISL,ioos:station:DISL:MHPA:1,2011-01-03T10:30:00Z,30.6671,-87.9365,2.211,10.08,1111122 
DISL,ioos:station:DISL:MHPA:1,2011-01-03T11:00:00Z,30.6671,-87.9365,2.115,10.23,1111122 
DISL,ioos:station:DISL:MHPA:1,2011-01-03T11:30:00Z,30.6671,-87.9365,2.018,10.28,1111122 
DISL,ioos:station:DISL:MHPA:1,2011-01-03T12:00:00Z,30.6671,-87.9365,1.941,10.46,1111122 
DISL,ioos:station:DISL:MHPA:1,2011-01-03T12:30:00Z,30.6671,-87.9365,1.87,10.3,1111122 
DISL,ioos:station:DISL:MHPA:1,2011-01-03T13:00:00Z,30.6671,-87.9365,1.801,9.32,1111122 
DISL,ioos:station:DISL:MHPA:1,2011-01-03T13:30:00Z,30.6671,-87.9365,1.726,9.34,1111122 
DISL,ioos:station:DISL:MHPA:1,2011-01-03T14:00:00Z,30.6671,-87.9365,1.643,10.1,1111122 
DISL,ioos:station:DISL:MHPA:1,2011-01-03T14:30:00Z,30.6671,-87.9365,1.569,10.61,1111122 
DISL,ioos:station:DISL:MHPA:1,2011-01-03T15:00:00Z,30.6671,-87.9365,1.514,10.19,1111122 
DISL,ioos:station:DISL:MHPA:1,2011-01-03T15:30:00Z,30.6671,-87.9365,1.476,10.66,1111122 
DISL,ioos:station:DISL:MHPA:1,2011-01-03T16:00:00Z,30.6671,-87.9365,1.444,10.81,1111122 
DISL,ioos:station:DISL:MHPA:1,2011-01-03T16:30:00Z,30.6671,-87.9365,1.418,11.19,1111122 
DISL,ioos:station:DISL:MHPA:1,2011-01-03T17:00:00Z,30.6671,-87.9365,1.402,11.39,1111122 
DISL,ioos:station:DISL:MHPA:1,2011-01-03T17:30:00Z,30.6671,-87.9365,1.384,11.53,1111122 
DISL,ioos:station:DISL:MHPA:1,2011-01-03T18:00:00Z,30.6671,-87.9365,1.377,10.95,1111122 
DISL,ioos:station:DISL:MHPA:1,2011-01-03T18:30:00Z,30.6671,-87.9365,1.403,12.9,1111122 
DISL,ioos:station:DISL:MHPA:1,2011-01-03T19:00:00Z,30.6671,-87.9365,1.501,13.76,1111122 
DISL,ioos:station:DISL:MHPA:1,2011-01-03T19:30:00Z,30.6671,-87.9365,1.735,14.07,1111122 
DISL,ioos:station:DISL:MHPA:1,2011-01-03T20:00:00Z,30.6671,-87.9365,2.013,12.27,1111122 
DISL,ioos:station:DISL:MHPA:1,2011-01-03T20:30:00Z,30.6671,-87.9365,2.217,12.75,1111122 
DISL,ioos:station:DISL:MHPA:1,2011-01-03T21:00:00Z,30.6671,-87.9365,2.375,13.46,1111122 
DISL,ioos:station:DISL:MHPA:1,2011-01-03T21:30:00Z,30.6671,-87.9365,2.537,13.37,1111122 
DISL,ioos:station:DISL:MHPA:1,2011-01-03T22:00:00Z,30.6671,-87.9365,2.659,13.71,1111122 
DISL,ioos:station:DISL:MHPA:1,2011-01-03T22:30:00Z,30.6671,-87.9365,2.808,13.61,1111122 
DISL,ioos:station:DISL:MHPA:1,2011-01-03T23:00:00Z,30.6671,-87.9365,2.987,12.99,1111122 
DISL,ioos:station:DISL:MHPA:1,2011-01-03T23:30:00Z,30.6671,-87.9365,3.122,13.57,1111122 
DISL,ioos:station:DISL:MHPA:1,2011-01-04T00:00:00Z,30.6671,-87.9365,3.248,13.81,1111122 
DISL,ioos:station:DISL:MHPA:1,2011-01-04T00:30:00Z,30.6671,-87.9365,3.408,14.1,1111122 
DISL,ioos:station:DISL:MHPA:1,2011-01-04T01:00:00Z,30.6671,-87.9365,3.558,13.78,1111122 
DISL,ioos:station:DISL:MHPA:1,2011-01-04T01:30:00Z,30.6671,-87.9365,3.645,13.66,1111122 
DISL,ioos:station:DISL:MHPA:1,2011-01-04T02:00:00Z,30.6671,-87.9365,3.781,13.59,1111122 
DISL,ioos:station:DISL:MHPA:1,2011-01-04T02:30:00Z,30.6671,-87.9365,3.894,13.42,1111122 
DISL,ioos:station:DISL:MHPA:1,2011-01-04T03:00:00Z,30.6671,-87.9365,4.01,13.31,1111122 
DISL,ioos:station:DISL:MHPA:1,2011-01-04T03:30:00Z,30.6671,-87.9365,4.123,13.12,1111122 
DISL,ioos:station:DISL:MHPA:1,2011-01-04T04:00:00Z,30.6671,-87.9365,4.152,12.83,1111122 
DISL,ioos:station:DISL:MHPA:1,2011-01-04T04:30:00Z,30.6671,-87.9365,4.185,12.94,1111122 
DISL,ioos:station:DISL:MHPA:1,2011-01-04T05:00:00Z,30.6671,-87.9365,4.275,13.08,1111122 
DISL,ioos:station:DISL:MHPA:1,2011-01-04T05:30:00Z,30.6671,-87.9365,4.224,13.48,1111122 
DISL,ioos:station:DISL:MHPA:1,2011-01-04T06:00:00Z,30.6671,-87.9365,4.147,13.23,1111122 
DISL,ioos:station:DISL:MHPA:1,2011-01-04T06:30:00Z,30.6671,-87.9365,4.095,13.0,1111122 
DISL,ioos:station:DISL:MHPA:1,2011-01-04T07:00:00Z,30.6671,-87.9365,3.993,13.24,1111122 
DISL,ioos:station:DISL:MHPA:1,2011-01-04T07:30:00Z,30.6671,-87.9365,3.802,13.22,1111122 
DISL,ioos:station:DISL:MHPA:1,2011-01-04T08:00:00Z,30.6671,-87.9365,3.69,12.91,1111122 
DISL,ioos:station:DISL:MHPA:1,2011-01-04T08:30:00Z,30.6671,-87.9365,3.521,12.81,1111122 
DISL,ioos:station:DISL:MHPA:1,2011-01-04T09:00:00Z,30.6671,-87.9365,3.355,12.84,1111122 
DISL,ioos:station:DISL:MHPA:1,2011-01-04T09:30:00Z,30.6671,-87.9365,3.199,12.96,1111122 
DISL,ioos:station:DISL:MHPA:1,2011-01-04T10:00:00Z,30.6671,-87.9365,3.076,12.96,1111122 
DISL,ioos:station:DISL:MHPA:1,2011-01-04T10:30:00Z,30.6671,-87.9365,2.938,12.93,1111122 
DISL,ioos:station:DISL:MHPA:1,2011-01-04T11:00:00Z,30.6671,-87.9365,2.819,13.14,1111122 
DISL,ioos:station:DISL:MHPA:1,2011-01-04T11:30:00Z,30.6671,-87.9365,2.716,13.21,1111122 
DISL,ioos:station:DISL:MHPA:1,2011-01-04T12:00:00Z,30.6671,-87.9365,2.601,13.26,1111122 
DISL,ioos:station:DISL:MHPA:1,2011-01-04T12:30:00Z,30.6671,-87.9365,2.504,13.14,1111122 
DISL,ioos:station:DISL:MHPA:1,2011-01-04T13:00:00Z,30.6671,-87.9365,2.427,13.37,1111122 
DISL,ioos:station:DISL:MHPA:1,2011-01-04T13:30:00Z,30.6671,-87.9365,2.339,13.31,1111122 
DISL,ioos:station:DISL:MHPA:1,2011-01-04T14:00:00Z,30.6671,-87.9365,2.247,12.92,1111122 
DISL,ioos:station:DISL:MHPA:1,2011-01-04T14:30:00Z,30.6671,-87.9365,2.174,12.58,1111122 
DISL,ioos:station:DISL:MHPA:1,2011-01-04T15:00:00Z,30.6671,-87.9365,2.112,12.56,1111122 
DISL,ioos:station:DISL:MHPA:1,2011-01-04T15:30:00Z,30.6671,-87.9365,2.046,12.55,1111122 
DISL,ioos:station:DISL:MHPA:1,2011-01-04T16:00:00Z,30.6671,-87.9365,1.988,12.69,1111122 
DISL,ioos:station:DISL:MHPA:1,2011-01-04T16:30:00Z,30.6671,-87.9365,1.962,12.9,1111122 
DISL,ioos:station:DISL:MHPA:1,2011-01-04T17:00:00Z,30.6671,-87.9365,1.943,12.85,1111122 
DISL,ioos:station:DISL:MHPA:1,2011-01-04T17:30:00Z,30.6671,-87.9365,1.954,13.31,1111122 
DISL,ioos:station:DISL:MHPA:1,2011-01-04T18:00:00Z,30.6671,-87.9365,1.979,12.94,1111122 
DISL,ioos:station:DISL:MHPA:1,2011-01-04T18:30:00Z,30.6671,-87.9365,1.984,13.25,1111122 
DISL,ioos:station:DISL:MHPA:1,2011-01-04T19:00:00Z,30.6671,-87.9365,2.04,13.55,1111122 
DISL,ioos:station:DISL:MHPA:1,2011-01-04T19:30:00Z,30.6671,-87.9365,2.157,14.68,1111122 
DISL,ioos:station:DISL:MHPA:1,2011-01-04T20:00:00Z,30.6671,-87.9365,2.289,14.41,1111122 
DISL,ioos:station:DISL:MHPA:1,2011-01-04T20:30:00Z,30.6671,-87.9365,2.432,13.81,1111122 
DISL,ioos:station:DISL:MHPA:1,2011-01-04T21:00:00Z,30.6671,-87.9365,2.563,14.55,1111122 
DISL,ioos:station:DISL:MHPA:1,2011-01-04T21:30:00Z,30.6671,-87.9365,2.701,13.93,1111122 
DISL,ioos:station:DISL:MHPA:1,2011-01-04T22:00:00Z,30.6671,-87.9365,2.843,13.78,1111122 
DISL,ioos:station:DISL:MHPA:1,2011-01-04T22:30:00Z,30.6671,-87.9365,3.006,13.82,1111122 
DISL,ioos:station:DISL:MHPA:1,2011-01-04T23:00:00Z,30.6671,-87.9365,3.077,13.99,1111122 
DISL,ioos:station:DISL:MHPA:1,2011-01-04T23:30:00Z,30.6671,-87.9365,3.13,14.41,1111122 
DISL,ioos:station:DISL:MHPA:1,2011-01-05T00:00:00Z,30.6671,-87.9365,3.24,13.99,1111122 
DISL,ioos:station:DISL:MHPA:1,2011-01-05T00:30:00Z,30.6671,-87.9365,3.351,14.53,1111122 
DISL,ioos:station:DISL:MHPA:1,2011-01-05T01:00:00Z,30.6671,-87.9365,3.401,14.47,1111122 
DISL,ioos:station:DISL:MHPA:1,2011-01-05T01:30:00Z,30.6671,-87.9365,3.507,14.27,1111122 
DISL,ioos:station:DISL:MHPA:1,2011-01-05T02:00:00Z,30.6671,-87.9365,3.65,14.94,1111122 
DISL,ioos:station:DISL:MHPA:1,2011-01-05T02:30:00Z,30.6671,-87.9365,3.757,14.01,1111122 
DISL,ioos:station:DISL:MHPA:1,2011-01-05T03:00:00Z,30.6671,-87.9365,3.832,14.12,1111122 
DISL,ioos:station:DISL:MHPA:1,2011-01-05T03:30:00Z,30.6671,-87.9365,3.947,13.53,1111122 
DISL,ioos:station:DISL:MHPA:1,2011-01-05T04:00:00Z,30.6671,-87.9365,4.026,13.67,1111122 
DISL,ioos:station:DISL:MHPA:1,2011-01-05T04:30:00Z,30.6671,-87.9365,4.075,13.63,1111122 
DISL,ioos:station:DISL:MHPA:1,2011-01-05T05:00:00Z,30.6671,-87.9365,4.121,13.79,1111122 
DISL,ioos:station:DISL:MHPA:1,2011-01-05T05:30:00Z,30.6671,-87.9365,4.146,13.85,1111122 
DISL,ioos:station:DISL:MHPA:1,2011-01-05T06:00:00Z,30.6671,-87.9365,4.1,13.72,1111122 
DISL,ioos:station:DISL:MHPA:1,2011-01-05T06:30:00Z,30.6671,-87.9365,4.054,13.95,1111122 
DISL,ioos:station:DISL:MHPA:1,2011-01-05T07:00:00Z,30.6671,-87.9365,3.998,13.87,1111122 
DISL,ioos:station:DISL:MHPA:1,2011-01-05T07:30:00Z,30.6671,-87.9365,3.873,13.68,1111122 
DISL,ioos:station:DISL:MHPA:1,2011-01-05T08:00:00Z,30.6671,-87.9365,3.732,13.23,1111122 
DISL,ioos:station:DISL:MHPA:1,2011-01-05T08:30:00Z,30.6671,-87.9365,3.595,13.36,1111122 
DISL,ioos:station:DISL:MHPA:1,2011-01-05T09:00:00Z,30.6671,-87.9365,3.46,13.23,1111122 
DISL,ioos:station:DISL:MHPA:1,2011-01-05T09:30:00Z,30.6671,-87.9365,3.324,15.07,1111122 
DISL,ioos:station:DISL:MHPA:1,2011-01-05T10:00:00Z,30.6671,-87.9365,3.229,15.03,1111122 
DISL,ioos:station:DISL:MHPA:1,2011-01-05T10:30:00Z,30.6671,-87.9365,3.126,15.06,1111122 
DISL,ioos:station:DISL:MHPA:1,2011-01-05T11:00:00Z,30.6671,-87.9365,3.009,14.38,1111122 
DISL,ioos:station:DISL:MHPA:1,2011-01-05T11:30:00Z,30.6671,-87.9365,2.902,14.07,1111122 
DISL,ioos:station:DISL:MHPA:1,2011-01-05T12:00:00Z,30.6671,-87.9365,2.797,14.07,1111122 
DISL,ioos:station:DISL:MHPA:1,2011-01-05T12:30:00Z,30.6671,-87.9365,2.683,14.33,1111122 
DISL,ioos:station:DISL:MHPA:1,2011-01-05T13:00:00Z,30.6671,-87.9365,2.6,13.15,1111122 
DISL,ioos:station:DISL:MHPA:1,2011-01-05T13:30:00Z,30.6671,-87.9365,2.529,12.75,1111122 
DISL,ioos:station:DISL:MHPA:1,2011-01-05T14:00:00Z,30.6671,-87.9365,2.463,12.5,1111122 
DISL,ioos:station:DISL:MHPA:1,2011-01-05T14:30:00Z,30.6671,-87.9365,2.421,12.35,1111122 
DISL,ioos:station:DISL:MHPA:1,2011-01-05T15:00:00Z,30.6671,-87.9365,2.39,12.06,1111122 
DISL,ioos:station:DISL:MHPA:1,2011-01-05T15:30:00Z,30.6671,-87.9365,2.382,12.01,1111122 
DISL,ioos:station:DISL:MHPA:1,2011-01-05T16:00:00Z,30.6671,-87.9365,2.273,10.82,1111122 
DISL,ioos:station:DISL:MHPA:1,2011-01-05T16:30:00Z,30.6671,-87.9365,2.214,11.46,1111122 
DISL,ioos:station:DISL:MHPA:1,2011-01-05T17:00:00Z,30.6671,-87.9365,2.2,11.1,1111122 
DISL,ioos:station:DISL:MHPA:1,2011-01-05T17:30:00Z,30.6671,-87.9365,2.326,11.02,1111122 
DISL,ioos:station:DISL:MHPA:1,2011-01-05T18:00:00Z,30.6671,-87.9365,2.55,11.7,1111122 
DISL,ioos:station:DISL:MHPA:1,2011-01-05T18:30:00Z,30.6671,-87.9365,2.562,10.89,1111122 
DISL,ioos:station:DISL:MHPA:1,2011-01-05T19:00:00Z,30.6671,-87.9365,2.564,11.33,1111122 
DISL,ioos:station:DISL:MHPA:1,2011-01-05T19:30:00Z,30.6671,-87.9365,2.513,12.03,1111122 
DISL,ioos:station:DISL:MHPA:1,2011-01-05T20:00:00Z,30.6671,-87.9365,2.471,11.97,1111122 
DISL,ioos:station:DISL:MHPA:1,2011-01-05T20:30:00Z,30.6671,-87.9365,2.493,12.01,1111122 
DISL,ioos:station:DISL:MHPA:1,2011-01-05T21:00:00Z,30.6671,-87.9365,2.588,11.9,1111122 
DISL,ioos:station:DISL:MHPA:1,2011-01-05T21:30:00Z,30.6671,-87.9365,2.865,12.26,1111122 
DISL,ioos:station:DISL:MHPA:1,2011-01-05T22:00:00Z,30.6671,-87.9365,3.021,12.49,1111122 
DISL,ioos:station:DISL:MHPA:1,2011-01-05T22:30:00Z,30.6671,-87.9365,3.148,12.15,1111122 
DISL,ioos:station:DISL:MHPA:1,2011-01-05T23:00:00Z,30.6671,-87.9365,3.293,11.86,1111122 
DISL,ioos:station:DISL:MHPA:1,2011-01-05T23:30:00Z,30.6671,-87.9365,3.415,11.85,1111122 
DISL,ioos:station:DISL:MHPA:1,2011-01-06T00:00:00Z,30.6671,-87.9365,3.481,11.42,1111122 
DISL,ioos:station:DISL:MHPA:1,2011-01-06T00:30:00Z,30.6671,-87.9365,3.54,12.12,1111122 
DISL,ioos:station:DISL:MHPA:1,2011-01-06T01:00:00Z,30.6671,-87.9365,3.637,11.64,1111122 
DISL,ioos:station:DISL:MHPA:1,2011-01-06T01:30:00Z,30.6671,-87.9365,3.611,11.45,1111122 
DISL,ioos:station:DISL:MHPA:1,2011-01-06T02:00:00Z,30.6671,-87.9365,3.734,11.38,1111122 
DISL,ioos:station:DISL:MHPA:1,2011-01-06T02:30:00Z,30.6671,-87.9365,3.912,10.48,1111122 
DISL,ioos:station:DISL:MHPA:1,2011-01-06T03:00:00Z,30.6671,-87.9365,3.866,10.94,1111122 
DISL,ioos:station:DISL:MHPA:1,2011-01-06T03:30:00Z,30.6671,-87.9365,4.01,10.82,1111122 
DISL,ioos:station:DISL:MHPA:1,2011-01-06T04:00:00Z,30.6671,-87.9365,4.15,11.03,1111122 
DISL,ioos:station:DISL:MHPA:1,2011-01-06T04:30:00Z,30.6671,-87.9365,4.258,10.68,1111122 
DISL,ioos:station:DISL:MHPA:1,2011-01-06T05:00:00Z,30.6671,-87.9365,4.292,10.8,1111122 
DISL,ioos:station:DISL:MHPA:1,2011-01-06T05:30:00Z,30.6671,-87.9365,4.241,10.7,1111122 
DISL,ioos:station:DISL:MHPA:1,2011-01-06T06:00:00Z,30.6671,-87.9365,4.272,10.69,1111122 
DISL,ioos:station:DISL:MHPA:1,2011-01-06T06:30:00Z,30.6671,-87.9365,4.175,10.55,1111122 
DISL,ioos:station:DISL:MHPA:1,2011-01-06T07:00:00Z,30.6671,-87.9365,4.068,10.66,1111122 
DISL,ioos:station:DISL:MHPA:1,2011-01-06T07:30:00Z,30.6671,-87.9365,3.871,10.78,1111122 
DISL,ioos:station:DISL:MHPA:1,2011-01-06T08:00:00Z,30.6671,-87.9365,3.745,10.61,1111122 
DISL,ioos:station:DISL:MHPA:1,2011-01-06T08:30:00Z,30.6671,-87.9365,3.6,10.02,1111122 
DISL,ioos:station:DISL:MHPA:1,2011-01-06T09:00:00Z,30.6671,-87.9365,3.457,10.55,1111122 
DISL,ioos:station:DISL:MHPA:1,2011-01-06T09:30:00Z,30.6671,-87.9365,3.322,10.19,1111122 
DISL,ioos:station:DISL:MHPA:1,2011-01-06T10:00:00Z,30.6671,-87.9365,3.2,10.57,1111122 
DISL,ioos:station:DISL:MHPA:1,2011-01-06T10:30:00Z,30.6671,-87.9365,3.15,10.2,1111122 
DISL,ioos:station:DISL:MHPA:1,2011-01-06T11:00:00Z,30.6671,-87.9365,3.042,10.03,1111122 
DISL,ioos:station:DISL:MHPA:1,2011-01-06T11:30:00Z,30.6671,-87.9365,2.949,9.65,1111122 
DISL,ioos:station:DISL:MHPA:1,2011-01-06T12:00:00Z,30.6671,-87.9365,2.813,9.75,1111122 
DISL,ioos:station:DISL:MHPA:1,2011-01-06T12:30:00Z,30.6671,-87.9365,2.705,9.14,1111122 
DISL,ioos:station:DISL:MHPA:1,2011-01-06T13:00:00Z,30.6671,-87.9365,2.598,9.28,1111122 
DISL,ioos:station:DISL:MHPA:1,2011-01-06T13:30:00Z,30.6671,-87.9365,2.509,7.9,1111122 
DISL,ioos:station:DISL:MHPA:1,2011-01-06T14:00:00Z,30.6671,-87.9365,2.43,9.66,1111122 
DISL,ioos:station:DISL:MHPA:1,2011-01-06T14:30:00Z,30.6671,-87.9365,2.359,9.9,1111122 
DISL,ioos:station:DISL:MHPA:1,2011-01-06T15:00:00Z,30.6671,-87.9365,2.296,9.98,1111122 
DISL,ioos:station:DISL:MHPA:1,2011-01-06T15:30:00Z,30.6671,-87.9365,2.256,9.89,1111122 
DISL,ioos:station:DISL:MHPA:1,2011-01-06T16:00:00Z,30.6671,-87.9365,2.261,10.01,1111122 
DISL,ioos:station:DISL:MHPA:1,2011-01-06T16:30:00Z,30.6671,-87.9365,2.249,10.04,1111122 
DISL,ioos:station:DISL:MHPA:1,2011-01-06T17:00:00Z,30.6671,-87.9365,2.235,10.39,1111122 
DISL,ioos:station:DISL:MHPA:1,2011-01-06T17:30:00Z,30.6671,-87.9365,2.256,10.56,1111122 
DISL,ioos:station:DISL:MHPA:1,2011-01-06T18:00:00Z,30.6671,-87.9365,2.286,11.02,1111122 
DISL,ioos:station:DISL:MHPA:1,2011-01-06T18:30:00Z,30.6671,-87.9365,2.334,10.71,1111122 
DISL,ioos:station:DISL:MHPA:1,2011-01-06T19:00:00Z,30.6671,-87.9365,2.436,11.53,1111122 
DISL,ioos:station:DISL:MHPA:1,2011-01-06T19:30:00Z,30.6671,-87.9365,2.437,10.99,1111122 
DISL,ioos:station:DISL:MHPA:1,2011-01-06T20:00:00Z,30.6671,-87.9365,2.459,11.08,1111122 
DISL,ioos:station:DISL:MHPA:1,2011-01-06T20:30:00Z,30.6671,-87.9365,2.502,11.1,1111122 
DISL,ioos:station:DISL:MHPA:1,2011-01-06T21:00:00Z,30.6671,-87.9365,2.535,11.09,1111122 